EW4246 Weather Reports


Display with metric or nautical units.
time (UTC)temp
F
wind
direction
speed
MPH
gust
MPH
rain 1hr
in
rain 24hr
in
rain mn
in
humidity
%
barometer
mb
20260507064504 61 213 4.0 8.0 0.00 0.00 0.00 37 1012.5
20260507063004 62 275 4.0 8.0 0.00 0.00 0.00 37 1012.5
20260507061503 62 232 4.0 9.0 0.00 0.00 0.00 36 1012.3
20260507060003 62 246 3.0 8.0 0.00 0.00 0.00 36 1012.3
20260507054504 62 228 5.0 9.0 0.00 0.00 0.00 36 1012.2
20260507053003 62 211 3.0 10.0 0.00 0.00 0.00 36 1012.3
20260507051501 62 225 4.0 10.0 0.00 0.00 0.00 35 1012.2
20260507050108 63 264 5.0 9.0 0.00 0.00 0.00 35 1012.1
20260507044600 63 267 5.0 12.0 0.00 0.00 0.00 35 1012.0
20260507043100 63 179 5.0 11.0 0.00 0.00 0.00 35 1011.8
20260507041559 63 267 8.0 12.0 0.00 0.00 0.00 34 1011.6
20260507040109 64 272 6.0 10.0 0.00 0.00 0.00 34 1011.4
20260507034558 64 258 9.0 14.0 0.00 0.00 0.00 33 1011.3
20260507033057 65 259 6.0 11.0 0.00 0.00 0.00 33 1011.1
20260507031557 65 260 8.0 15.0 0.00 0.00 0.00 32 1010.9
20260507030057 66 225 6.0 12.0 0.00 0.00 0.00 32 1010.7
20260507024603 66 267 6.0 13.0 0.00 0.00 0.00 31 1010.4
20260507023055 67 260 5.0 11.0 0.00 0.00 0.00 30 1010.4
20260507021554 68 256 6.0 10.0 0.00 0.00 0.00 29 1010.2
20260507020054 70 273 6.0 15.0 0.00 0.00 0.00 28 1010.0
20260507014602 72 161 1.0 11.0 0.00 0.00 0.00 26 1009.8
20260507013053 74 85 8.0 12.0 0.00 0.00 0.00 25 1009.6
20260507011552 75 290 0.0 11.0 0.00 0.00 0.00 23 1009.6
20260507004601 76 311 3.0 9.0 0.00 0.00 0.00 22 1009.7
20260507003051 77 317 0.0 5.0 0.00 0.00 0.00 21 1009.5
20260507001552 77 278 4.0 10.0 0.00 0.00 0.00 22 1009.6
20260507000047 76 348 3.0 9.0 0.00 0.00 0.00 22 1009.6
20260506234548 75 269 1.0 9.0 0.00 0.00 0.00 23 1009.6
20260506233049 77 26 0.0 9.0 0.00 0.00 0.00 20 1009.6
20260506231543 76 319 4.0 9.0 0.00 0.00 0.00 21 1009.7
20260506230041 77 297 3.0 12.0 0.00 0.00 0.00 22 1009.8
20260506224538 77 225 0.0 9.0 0.00 0.00 0.00 21 1009.9
20260506223035 77 268 3.0 11.0 0.00 0.00 0.00 23 1010.1
20260506221533 77 96 5.0 11.0 0.00 0.00 0.00 20 1010.4
20260506220038 77 319 4.0 13.0 0.00 0.00 0.00 23 1010.7
20260506214530 76 295 0.0 7.0 0.00 0.00 0.00 22 1011.0
20260506213031 76 309 3.0 10.0 0.00 0.00 0.00 22 1011.4
20260506211528 74 246 1.0 9.0 0.00 0.00 0.00 24 1011.5
20260506210024 75 303 3.0 10.0 0.00 0.00 0.00 22 1011.7
20260506204522 74 312 3.0 13.0 0.00 0.00 0.00 23 1012.0
20260506203021 74 282 7.0 20.0 0.00 0.00 0.00 24 1012.0
20260506201518 74 19 2.0 9.0 0.00 0.00 0.00 24 1012.3
20260506200020 74 42 2.0 9.0 0.00 0.00 0.00 24 1012.5
20260506194513 72 313 3.0 13.0 0.00 0.00 0.00 25 1012.6
20260506193012 72 315 5.0 12.0 0.00 0.00 0.00 26 1012.7
20260506191510 72 50 3.0 10.0 0.00 0.00 0.00 26 1012.7
20260506190012 71 299 3.0 10.0 0.00 0.00 0.00 26 1012.9
20260506184505 69 45 2.0 9.0 0.00 0.00 0.00 27 1013.0
20260506183006 69 295 2.0 9.0 0.00 0.00 0.00 27 1013.3
20260506181501 68 332 2.0 8.0 0.00 0.00 0.00 28 1013.3
20260506180116 68 5 2.0 11.0 0.00 0.00 0.00 28 1013.4
20260506174557 67 9 1.0 10.0 0.00 0.00 0.00 29 1013.5
20260506173129 67 271 4.0 9.0 0.00 0.00 0.00 30 1013.6
20260506171552 65 304 2.0 9.0 0.00 0.00 0.00 31 1013.6
20260506170050 64 317 3.0 6.0 0.00 0.00 0.00 33 1013.5
20260506164549 63 244 2.0 9.0 0.00 0.00 0.00 34 1013.5
20260506163052 62 309 4.0 9.0 0.00 0.00 0.00 35 1013.6
20260506161553 62 305 4.0 10.0 0.00 0.00 0.00 34 1013.3
20260506160042 61 297 3.0 6.0 0.00 0.00 0.00 35 1013.3
20260506154539 60 270 3.0 8.0 0.00 0.00 0.00 37 1013.1
20260506153037 59 321 1.0 3.0 0.00 0.00 0.00 38 1013.1
20260506151537 59 328 2.0 6.0 0.00 0.00 0.00 38 1013.2
20260506150033 59 49 1.0 6.0 0.00 0.00 0.00 40 1013.2
20260506144529 57 104 0.0 3.0 0.00 0.00 0.00 44 1013.1
20260506143029 57 110 1.0 3.0 0.00 0.00 0.00 45 1013.1
20260506141531 55 110 0.0 3.0 0.00 0.00 0.00 47 1013.1
20260506140020 53 202 1.0 3.0 0.00 0.00 0.00 49 1013.0
20260506134516 50 202 0.0 0.0 0.00 0.00 0.00 54 1013.0
20260506133017 46 202 0.0 1.0 0.00 0.00 0.00 63 1012.8
20260506131513 42 201 0.0 1.0 0.00 0.00 0.00 67 1012.6
20260506130016 41 201 0.0 0.0 0.00 0.00 0.00 66 1012.4
20260506124509 41 202 0.0 1.0 0.00 0.00 0.00 66 1012.4
20260506123008 42 209 0.0 2.0 0.00 0.00 0.00 65 1012.0
20260506121505 42 209 0.0 3.0 0.00 0.00 0.00 66 1011.7
20260506120002 41 209 1.0 3.0 0.00 0.00 0.00 65 1011.5
20260506114558 43 209 0.0 2.0 0.00 0.00 0.00 62 1011.6
20260506113059 44 209 1.0 3.0 0.00 0.00 0.00 59 1011.5
20260506111555 46 209 1.0 3.0 0.00 0.00 0.00 56 1011.3
20260506110052 48 209 0.0 3.0 0.00 0.00 0.00 56 1011.2
20260506104556 49 237 0.0 3.0 0.00 0.00 0.00 53 1011.1
20260506103050 49 251 2.0 6.0 0.00 0.00 0.00 54 1010.9
20260506101548 48 232 1.0 5.0 0.00 0.00 0.00 55 1010.9
20260506100048 49 247 1.0 4.0 0.00 0.00 0.00 54 1011.1
20260506094600 45 254 1.0 4.0 0.00 0.00 0.00 60 1011.0
20260506093046 45 259 0.0 2.0 0.00 0.00 0.00 58 1011.1
20260506091544 44 259 0.0 2.0 0.00 0.00 0.00 60 1010.9
20260506090041 44 259 0.0 1.0 0.00 0.00 0.00 60 1010.6
20260506084538 45 259 0.0 2.0 0.00 0.00 0.00 57 1010.5
20260506083032 47 259 0.0 1.0 0.00 0.00 0.00 53 1010.4
20260506081531 49 259 1.0 3.0 0.00 0.00 0.00 50 1010.5
20260506073024 49 245 1.0 3.0 0.00 0.00 0.00 51 1010.5
20260506071521 50 245 0.0 2.0 0.00 0.00 0.00 48 1010.4